Regional Weather Roundup
Issued by NWS

Home | Current Version | Previous Version | Graphics & Text | Print | Product List | Glossary On
Versions: 1 2 3 4 5 6 7 8 9 10 11 12 13 14 15 16 17 18 19 20 21 22 23 24 25 26 27 28 29 30 31 32 33 34 35 36 37 38 39 40 41 42 43 44 45 46 47 48 49 50
000
ASUS43 KMKX 200721
RWRWI

WISCONSIN REGIONAL WEATHER ROUNDUP
NATIONAL WEATHER SERVICE MILWAUKEE/SULLIVAN WI
200 AM CDT THU JUL 20 2017

NOTE: "FAIR" INDICATES FEW OR NO CLOUDS BELOW 12,000 FEET WITH NO
SIGNIFICANT WEATHER AND/OR OBSTRUCTIONS TO VISIBILITY.

WIZ001-002-006>008-014>016-023>028-200800-
NORTHWEST WISCONSIN

CITY           SKY/WX    TMP DP  RH WIND       PRES   REMARKS
SUPERIOR ARPT  NOT AVBL
ASHLAND        CLEAR     56  55  97 S5        29.92S FOG
HAYWARD        PTCLDY    57  55  93 CALM      29.94S
SIREN          CLOUDY    62  60  93 CALM      29.94S
CUMBERLAND     CLOUDY    63  61  94 CALM      29.94F
RICE LAKE      MOCLDY    65  63  92 CALM      29.95F
CHETEK         CLOUDY    65  64  94 CALM      29.93F
LADYSMITH      CLOUDY    65  62  88 CALM      29.96F
EAU CLAIRE     CLOUDY    68  67  96 CALM      29.91F
MENOMONIE      CLOUDY    69  69  99 CALM      29.92F
NEW RICHMOND   CLOUDY    66  66  97 CALM      29.94R
OSCEOLA        CLOUDY    66  66 100 CALM      29.96R
$$

WIZ003>005-009-010-017-018-200800-
NORTH CENTRAL WISCONSIN

CITY           SKY/WX    TMP DP  RH WIND       PRES   REMARKS
MANITOWISH WTR CLEAR     58  58 100 CALM      29.95S
ARBOR VITAE    CLEAR     63  59  87 CALM      29.95R
WOODRUFF       CLEAR     63  59  87 CALM      29.95R
RHINELANDER    CLOUDY    63  60  90 CALM      29.95F
EAGLE RIVER    CLOUDY    62  56  79 CALM      29.94S
LAND O LAKES   CLOUDY    57  56  98 CALM      29.97S
PHILLIPS       MOCLDY    64  61  91 CALM      29.93F
TOMAHAWK         N/A     58  57  95 CALM      29.95F
MEDFORD        CLOUDY    65  63  90 SW5       29.95F
MERRILL        CLOUDY    63  62  97 W3        29.94F
$$

WIZ029-030-035-036-043>047-200800-
CENTRAL WISCONSIN

CITY           SKY/WX    TMP DP  RH WIND       PRES   REMARKS
WAUSAU         CLOUDY    67  64  90 SW8       29.93S
MOSINEE        CLOUDY    66  64  94 SW9G18    29.94F
MARSHFIELD     LGT RAIN  67  64  90 SW7       29.93F
STEVENS POINT  LGT RAIN  66  66 100 SW12G17   29.97S
WAUPACA        DRIZZLE   71  68  89 W13G22    29.96S
WAUTOMA        LGT RAIN  68  66  93 SW13      29.98F
WISC RAPIDS    RAIN      67  66  97 SW9       29.97F
CAMP DOUGLAS   CLOUDY    68  66  94 NE5       29.96F
$$

WIZ011>013-019>022-031-037>040-048>050-200800-
NORTHEAST WISCONSIN

CITY           SKY/WX    TMP DP  RH WIND       PRES   REMARKS
ANTIGO         CLOUDY    62  58  89 SW3       29.94F
SHAWANO        CLOUDY    69  56  63 CALM      29.91F
OCONTO         CLOUDY    67  56  68 CALM      29.92F
STURGEON BAY     N/A     67  58  72 S8        29.94F
GREEN BAY      CLOUDY    67  60  78 S3        29.94F
MANITOWOC      LGT RAIN  68  60  75 E7        29.93F
APPLETON       DRIZZLE   70  64  83 W12       29.95R
CLINTONVILLE   CLOUDY    66  59  77 SW3       29.93F
OSHKOSH        RAIN      71  67  87 SW12G20   29.93F
$$

WIZ032>034-041-042-053>061-200800-
SOUTHWEST WISCONSIN

CITY           SKY/WX    TMP DP  RH WIND       PRES   REMARKS
LA CROSSE      CLOUDY    71  68  90 SE10      29.90F
SPARTA         CLOUDY    65  65 100 NE7       29.98R
VIROQUA        CLOUDY    66  66 100 SE8       29.98F
BOSCOBEL       TSTM      68  66  93 VRB5G16   29.99R
PRAIRIE DU CHI CLOUDY    70  66  87 E3        29.95F
PLATTEVILLE    CLOUDY    70  69  95 SE10      29.94F
$$

WIZ056-057-062-063-064-067-068-200800-
SOUTH CENTRAL WISCONSIN

CITY           SKY/WX    TMP DP  RH WIND       PRES   REMARKS
REEDSBURG      RAIN      65  65 100 SE8       29.95F
BARABOO/DELLS  TSTM      65  63  93 SW12      30.06R
LONE ROCK      TSTM      68  65  90 S9G23     30.02S FOG
MINERAL POINT  HVY RAIN  70  70 100 NE15G23   30.01R
MADISON        RAIN      69  67  93 SW10      30.03S FOG
MIDDLETON      CLOUDY    69  69 100 N5        30.05R
WATERTOWN      LGT RAIN  69  69 100 SW7       29.97F
MONROE         CLOUDY    68  66  94 N15       30.01R
JANESVILLE     CLOUDY    70  70 100 CALM      30.00F
$$

WIZ051-052-058>065-066-070>072-200800-
SOUTHEAST WISCONSIN

CITY           SKY/WX    TMP DP  RH WIND       PRES   REMARKS
MILWAUKEE      LGT RAIN  72  68  87 NW12      29.99R
WAUKESHA       CLOUDY    68  64  88 W6        29.99F
MILWAUKEE/TIMM LGT RAIN  70  63  78 W5        30.00R
RACINE         CLOUDY    69  67  93 W10       29.98R
KENOSHA        CLOUDY    68  66  93 SW10      29.98R
FOND DU LAC    LGT RAIN  69  65  86 CALM      30.00S
SHEBOYGAN      LGT RAIN  71  67  87 W8        29.97S
WEST BEND      LGT RAIN  68  64  88 W6        29.98F
JUNEAU         RAIN      68  66  93 W5        29.99F
$$

LSZ147-162-200800-
LAKE SUPERIOR

STATION/POSITION TIME  TEMP    WIND        PRES    WAVE
                       AIR SEA DIR/SP/G            HT/PER
                 (UTC) (F)     (DEG/KT/KT) (MB)    (FT/S)
W MID LAKE BUOY  0650   52 47  340/  4/  4 1012.1F   0
DEVILS ISLAND    0700   58     360/  3/  4 1012.6F
SAXON HARBOR     0630   63     180/  5/  7 1012.2S
$$

LMZ867-665-643>646-200800-
LAKE MICHIGAN

STATION/POSITION TIME  TEMP    WIND        PRES    WAVE
                       AIR SEA DIR/SP/G            HT/PER
                 (UTC) (F)     (DEG/KT/KT) (MB)    (FT/S)
CHAMBERS ISLAND  0640   67     160/  3/  5 1012.5F
S GREEN BAY BUOY 0700   71 71  200/ 12/ 14 1013.2F
N MID LAKE BUOY  0650   68 65  140/  6/  8 1013.6F   0
NORTHPORT PIER   0640   68     160/  7/ 10 1013.5S
KEWAUNEE LAKESHO 0700   70     200/  9/ 10 1013.3
SHEBOYGAN LAKESH 0700   72     350/  6/  8 1014.3S
PORT WASHINGTON  0640   72     310/  7/ 11 1015.6R
ATWATER BUOY     0609   72 68  260/ 19/ 27 1014.5R
MILWAUKEE LAKESH 0700   72     290/ 14/ 16   N/A
S MID LAKE BUOY  0650   71 69  270/ 27/ 33 1012.2R   3/ 4
KENOSHA   LAKESH 0700   69     250/  9/ 20 1014.9
$$

TC  - TEMPERATURE IN CELSIUS
VSB - VISIBILITY IN STATUTE MILES
WCI - WIND CHILL INDEX
HX  - HEAT INDEX





USA.gov is the U.S. government's official web portal to all federal, state and local government web resources and services.